Location: La Chapelle
(48.3135°N, 1.3085°W)
Time: 03:27:10
(UTC+00:00)

Ariane Rocket - Pass Details

Date: 03 March 2021
Orbit: 759 x 771 km, 98.7° (Epoch: 16 April)

Event Time Altitude Azimuth Distance (km) Brightness Sun altitude
Exits shadow 20:22:17 32° 189° (S) 1,297 4.0 -25.3°
Maximum altitude 20:24:33 62° 258° (WSW) 865 3.4 -25.7°
Drops below altitude 10° 20:29:38 10° 339° (NNW) 2,323 6.0 -26.5°
Sets 20:31:59 0° 343° (NNW) 3,254 6.8 -26.8°
